COSMOS 1867 COOLANT

Satellite information

Favourite Embed

Satellite Type and Status

DEBRISIN ORBIT

Key statistics

Satellite COSMOS 1867 COOLANT at a glance.

Uptime

13935

Days in orbit

Revolutions

≈ 14.3

Per day

Orbit

LEO

Low Earth Orbit

Inclination

65.0

Latest

Satellite identification and parameters

Extended collection of information and parameters for COSMOS 1867 COOLANT.

Object identification

Identified? True

Debris? False

Object name: COSMOS 1867 COOLANT

International designator: 1987-060AK

Object number (NORAD): 39672

Object ID (CCSDS): 39672

Country: COMMONWEALTH OF INDEPENDENT STATES (CIS)

Current information (Y/N): Y

RCS size: SMALL

Orbital parameters

Period: 100.426 minutes

Inclination: 65.0042 deg

SMA: 7156.869 km

Apoapsis: 789.205 km

Periapsis: 768.263 km

RAAN: 96.0652 deg

Eccentricy: 0.00146305

Argument of periapsis: 262.9569 deg

Mean anomaly: 96.9853 deg

Mean motion: 14.33897779 rev/day

Mean motion (dot): 0.00000699 rev/day2

B* drag term: 0.00028599571 1/REarth

Two-line elements (TLE)

Creation date: Sept. 3, 2025, 2:21 a.m.

Reference frame: TEME

Reference center: EARTH

Epoch: Sept. 2, 2025, 10:48 p.m. UTC

TLE line 0: 0 COSMOS 1867 COOLANT

TLE line 1: 1 39672U 87060AK 25245.95063009 .00000699 00000-0 28600-3 0 9991

TLE line 2: 2 39672 65.0042 96.0652 0014631 262.9569 96.9853 14.33897779595487

Live tracking on map

Real-time ground track for satellite COSMOS 1867 COOLANT.

In-orbit conjunctions

A list of the most updated potential collisions computed for object COSMOS 1867 COOLANT.

Target Orbit TCA Probability of collision Miss distance Type
CZ-6A DEB LEO 2025-01-03 02:13:25 0.0001144363 289.0 (m) DEBRIS

Associated space launch

Nuclear-powered magnetospheric research satellite

COSMOS 1867 COOLANT was lifted into orbit during the mission ‘Tsiklon-2 | Plasma-A 2’, on board a Tsiklon-2 space rocket.

The launch took place on July 10, 1987, 3:35 p.m. from 90.

For more information about the launch, click the button.

Launch to space Tsiklon-2 | Plasma-A 2
Tsiklon-2 | Plasma-A 2

Agency: N/A

Status: Launch Successful

Launch date: July 10, 1987, 3:35 p.m. UTC

Rocket: Tsiklon-2

Launch pad: 90

Location: Baikonur Cosmodrome, Republic of Kazakhstan

...

Latest news about this satellite

There are no fresh news available about this satellite. Check back as we update our databases every day.


Newsletter sign-up

Weekly statistics, charts and insights to help you stay on top of the space industry.